[[{"header":{"parameterUnit":"m.s-1","parameterCategory":1,"la1":30.2991,"la2":30.254,"lo1":-89.0895,"lo2":-89.0444,"dy":0.0017,"dx":0.0017,"nx":28,"ny":28,"refTime":"2026-02-04T09:00:00:Z","depth":0,"parameterNumber":2,"parameterNumberName":"U-component_of_WINDS"},"data":[0,0,0,0,0,0,0,0,0,0,0,0,0,0,0,0,0,0,0,0,0,0,0,0,0,0,0,0,0,0,0,0,0,0,0,0,0,0,0,0,0,0,0,0,0,0,0,0,0,0,0,0,0,0,0,0,0,0,3.7332,3.7333,0,3.7387,3.7387,3.7388,3.7367,3.7365,3.7364,3.7363,3.7418,3.7421,3.7423,0,0,0,0,0,0,0,0,0,0,0,0,0,3.721,3.7212,3.7332,3.7333,3.7333,3.7387,3.7387,3.7388,3.7367,3.7365,3.7364,3.7362,3.7417,3.742,3.7424,0,0,0,0,0,0,0,0,0,0,0,0,0,3.7264,3.7213,3.7332,3.7329,3.7329,3.7387,3.7387,3.7388,3.7367,3.7365,3.7363,3.7362,3.7416,3.742,3.7424,3.7487,0,0,3.7436,3.7438,0,0,0,0,0,0,0,0,3.7261,3.7268,3.7329,3.7329,3.733,3.7368,3.7365,3.7421,3.7368,3.7353,3.7363,3.7361,3.7403,3.7408,3.7422,3.7489,3.7492,3.7437,3.7439,3.7441,3.7442,0,0,0,0,0,0,0,3.7257,3.7266,3.7354,3.733,3.733,3.7326,3.7331,3.7375,3.7388,3.7354,3.7353,3.7359,3.7403,3.7419,3.7423,3.7492,3.7436,3.744,3.7442,3.7444,3.7616,3.7618,0,0,0,0,0,0,3.7253,3.7263,3.7352,3.7355,3.729,3.7329,3.7335,3.7358,3.7387,3.739,3.7361,3.7358,3.7413,3.7419,3.7425,3.7502,3.7441,3.7444,3.7447,3.7614,3.7617,3.7619,0,0,0,0,0,0,3.725,3.7261,3.735,3.7309,3.732,3.7333,3.7359,3.736,3.7375,3.7393,3.7395,3.7375,3.7411,3.742,3.7472,3.7504,3.7446,3.745,3.7612,3.7615,3.7618,3.7656,0,0,0,0,0,0,3.7247,3.726,3.7284,3.7309,3.7322,3.7395,3.736,3.7362,3.7382,3.7379,3.7406,3.7409,3.7411,3.7466,3.7476,3.7508,3.7453,3.7609,3.7613,3.7617,3.7652,3.766,3.7667,0,0,0,0,0,3.7243,3.7291,3.7285,3.7296,3.7351,3.7397,3.7404,3.7406,3.7385,3.7409,3.7421,3.7408,3.7499,3.7472,3.7483,3.7516,3.7607,3.7612,3.7617,3.7648,3.7658,3.7667,0,0,0,0,0,0,3.7268,3.7295,3.7288,3.7346,3.737,3.7394,3.7424,3.7416,3.7446,3.7441,3.7442,3.7448,3.7503,3.7515,3.7484,3.758,3.755,3.7557,3.757,3.758,3.7587,3.7583,3.7456,0,0,0,0,0,3.7281,3.7316,3.7337,3.7386,3.7399,3.741,3.7429,3.7429,3.7453,3.7463,3.7478,3.7502,3.7536,3.7558,3.7591,3.7653,3.766,3.7682,3.769,3.7696,3.7702,3.7738,3.7749,3.7635,3.7635,3.7635,0,0,3.7307,3.7326,3.7347,3.7392,3.741,3.7447,3.7418,3.7457,3.7485,3.7468,3.752,3.7532,3.7559,3.7617,3.7644,3.7629,3.7735,3.7702,3.7707,3.771,3.7745,3.7755,3.7765,3.7639,3.7638,3.7638,0,0,3.7373,3.739,3.7435,3.7454,3.7482,3.749,3.75,3.7526,3.7534,3.7585,3.7575,3.7608,3.7666,3.7686,3.7704,3.7782,3.7772,3.7792,3.7832,3.7867,3.7876,3.7884,3.7913,3.7923,3.7799,3.7799,3.7799,0,3.7402,3.7456,3.7458,3.7499,3.752,3.7508,3.7554,3.7573,3.761,3.7625,3.7608,3.7683,3.77,3.7764,3.7783,3.7798,3.7811,3.7789,3.7875,3.7883,3.789,3.7918,3.7928,3.7801,3.7801,3.7801,3.78,0,3.7491,3.7529,3.7562,3.76,3.7624,3.7667,3.7676,3.7701,3.7699,3.7708,3.7762,3.7782,3.782,3.7835,3.7833,3.79,3.789,3.7874,3.7844,3.7903,3.7929,3.794,3.7804,3.7804,3.7803,3.7802,0,0,3.7573,3.7613,3.7625,3.7643,3.7675,3.7705,3.7748,3.7786,3.7808,3.7834,3.7871,3.7923,3.7909,3.793,3.793,3.7961,3.8023,3.7941,3.7942,3.7957,3.81,3.8112,3.8124,3.8017,3.8019,3.802,3.8098,0,3.7643,3.7719,3.7723,3.7793,3.7829,3.782,3.7858,3.7882,3.7893,3.7926,3.7937,3.7974,3.7953,3.7965,3.7996,3.8009,3.8052,3.8003,3.8052,3.8054,3.8046,3.8138,3.815,3.8222,3.8108,3.811,3.8111,0,3.7734,3.7765,3.7839,3.7867,3.7883,3.7917,3.7953,3.7984,3.8012,3.8018,3.8042,3.8039,3.8085,3.8053,3.8117,3.8084,3.8104,3.8114,3.8117,3.8122,3.8086,3.8145,3.8245,3.8256,3.8127,3.8125,3.8124,0,3.7788,3.7848,3.7901,3.7916,3.7951,3.7975,3.7991,3.8017,3.804,3.8072,3.8087,3.8123,3.8143,3.8171,3.8178,3.8155,3.8243,3.8211,3.8249,3.8249,3.8268,3.8267,3.8373,3.8281,3.828,3.828,3.828,0,3.7865,3.7911,3.7926,3.7958,3.801,3.8014,3.8065,3.8079,3.8103,3.8139,3.8133,3.8166,3.8173,3.8209,3.8214,3.8267,3.8276,3.8282,3.8284,3.8283,3.8283,3.8297,3.8292,3.8283,3.8282,3.8282,3.8281,0,3.7934,3.7946,3.8003,3.8032,3.804,3.8077,3.8102,3.8134,3.8144,3.8189,3.82,3.8217,3.8259,3.8269,3.8318,3.8322,3.8385,3.8381,3.8376,3.8375,3.8413,3.841,3.8533,3.855,3.8445,3.8446,3.8447,0,3.7983,3.8018,3.8052,3.8076,3.8093,3.8131,3.8155,3.8162,3.8187,3.8223,3.8251,3.8292,3.8325,3.8392,3.8408,3.8447,3.8444,3.8484,3.8449,3.8449,3.8446,3.8444,3.8448,3.8491,3.8492,3.8493,3.8494,0,3.8069,3.8074,3.8109,3.8147,3.8176,3.8206,3.8234,3.8254,3.8265,3.8294,3.8337,3.8363,3.8415,3.8456,3.8495,3.8511,3.8505,3.8505,3.8516,3.8516,3.8512,3.8516,3.8394,3.8502,3.8501,3.85,3.85,3.8499,3.813,3.8162,3.8191,3.8231,3.8254,3.8281,3.8313,3.8329,3.8365,3.8407,3.8409,3.8456,3.8486,3.8537,3.8556,3.8594,3.8582,3.8597,3.8601,3.8605,3.8609,3.8506,3.8601,3.8601,3.86,3.86,3.86,0,3.8217,3.8236,3.8273,3.8314,3.8346,3.8338,3.837,3.8397,3.8439,3.8466,3.85,3.855,3.8591,3.8612,3.8653,3.8679,3.8677,3.8689,3.8688,3.8692,3.8617,3.8604,3.869,3.869,3.869,3.869,3.869,3.869,3.8266,3.832,3.8328,3.8394,3.8413,3.8459,3.8478,3.8504,3.8527,3.8584,3.8618,3.8631,3.8657,3.87,3.8738,3.8743,3.8759,3.8773,3.8776,3.8706,3.8697,3.8688,3.8676,3.8776,3.8776,3.8848,3.8849,3.8849]},{"header":{"parameterUnit":"m.s-1","parameterCategory":1,"la1":30.2991,"la2":30.254,"lo1":-89.0895,"lo2":-89.0444,"dy":0.0017,"dx":0.0017,"nx":28,"ny":28,"refTime":"2026-02-04T09:00:00:Z","depth":0,"parameterNumber":3,"parameterNumberName":"V-component_of_WINDS"},"data":[0,0,0,0,0,0,0,0,0,0,0,0,0,0,0,0,0,0,0,0,0,0,0,0,0,0,0,0,0,0,0,0,0,0,0,0,0,0,0,0,0,0,0,0,0,0,0,0,0,0,0,0,0,0,0,0,0,0,-6.0482,-6.0484,0,-6.0625,-6.0626,-6.0628,-6.0627,-6.0625,-6.0624,-6.0622,-6.0763,-6.0768,-6.0774,0,0,0,0,0,0,0,0,0,0,0,0,0,-6.0207,-6.0212,-6.0482,-6.0484,-6.0485,-6.0624,-6.0626,-6.0628,-6.0628,-6.0625,-6.0623,-6.0621,-6.0761,-6.0768,-6.0774,0,0,0,0,0,0,0,0,0,0,0,0,0,-6.0335,-6.0213,-6.0482,-6.0502,-6.0505,-6.0624,-6.0626,-6.0629,-6.0628,-6.0625,-6.0622,-6.062,-6.0759,-6.0767,-6.0775,-6.0881,0,0,-6.08,-6.0804,0,0,0,0,0,0,0,0,-6.0328,-6.0345,-6.0497,-6.0501,-6.0505,-6.0605,-6.0581,-6.0713,-6.0629,-6.0581,-6.0622,-6.0619,-6.0712,-6.0724,-6.0757,-6.0888,-6.0894,-6.0801,-6.0806,-6.0809,-6.0812,0,0,0,0,0,0,0,-6.0319,-6.0339,-6.0538,-6.0499,-6.0504,-6.0503,-6.0518,-6.0606,-6.066,-6.0585,-6.0585,-6.0603,-6.0714,-6.0749,-6.076,-6.0896,-6.0801,-6.0808,-6.0813,-6.0816,-6.1125,-6.1128,0,0,0,0,0,0,-6.0306,-6.0332,-6.0534,-6.0542,-6.0408,-6.0511,-6.0528,-6.0576,-6.066,-6.067,-6.0605,-6.0602,-6.0736,-6.0751,-6.0765,-6.0898,-6.0809,-6.0817,-6.0822,-6.1122,-6.1126,-6.1129,0,0,0,0,0,0,-6.03,-6.0324,-6.0528,-6.0437,-6.0463,-6.0518,-6.0572,-6.058,-6.0615,-6.0675,-6.0684,-6.0631,-6.0735,-6.0754,-6.0854,-6.0902,-6.0821,-6.0828,-6.1118,-6.1123,-6.1128,-6.1162,0,0,0,0,0,0,-6.0293,-6.0322,-6.0364,-6.0438,-6.0468,-6.0615,-6.0575,-6.0585,-6.063,-6.0628,-6.0702,-6.0711,-6.0734,-6.0842,-6.0862,-6.0912,-6.0835,-6.1114,-6.112,-6.1126,-6.1157,-6.1167,-6.1176,0,0,0,0,0,-6.0283,-6.0366,-6.0366,-6.039,-6.0521,-6.0618,-6.0634,-6.0661,-6.0634,-6.0676,-6.0715,-6.0709,-6.0894,-6.0852,-6.0875,-6.0928,-6.1111,-6.1118,-6.1126,-6.1152,-6.1165,-6.1176,0,0,0,0,0,0,-6.0292,-6.0376,-6.0377,-6.0486,-6.0545,-6.0617,-6.0671,-6.0673,-6.0739,-6.0734,-6.0762,-6.0779,-6.0879,-6.0914,-6.0865,-6.1037,-6.0999,-6.1011,-6.1011,-6.1024,-6.1034,-6.1024,-6.0842,0,0,0,0,0,-6.0308,-6.038,-6.0449,-6.0539,-6.0569,-6.0615,-6.0658,-6.0673,-6.0735,-6.0759,-6.0805,-6.0863,-6.0935,-6.0981,-6.105,-6.1162,-6.1179,-6.121,-6.122,-6.1228,-6.1238,-6.1302,-6.1318,-6.1154,-6.1153,-6.1153,0,0,-6.0339,-6.0394,-6.0437,-6.0542,-6.059,-6.0664,-6.0636,-6.0714,-6.077,-6.077,-6.0869,-6.0905,-6.0972,-6.1079,-6.1128,-6.1111,-6.1288,-6.1237,-6.1243,-6.1249,-6.1311,-6.1327,-6.1341,-6.1158,-6.1158,-6.1157,0,0,-6.0435,-6.0483,-6.0565,-6.0615,-6.0688,-6.0719,-6.0738,-6.0811,-6.0836,-6.0936,-6.0939,-6.1004,-6.1126,-6.1176,-6.1216,-6.1335,-6.1333,-6.1356,-6.1408,-6.147,-6.1483,-6.1495,-6.1539,-6.1554,-6.1366,-6.1367,-6.1367,0,-6.0465,-6.0578,-6.0607,-6.0688,-6.0734,-6.0741,-6.0825,-6.087,-6.0961,-6.0993,-6.0973,-6.1129,-6.1174,-6.1294,-6.1324,-6.1356,-6.138,-6.1348,-6.1479,-6.1491,-6.1502,-6.1545,-6.1561,-6.1369,-6.1369,-6.1368,-6.1368,0,-6.0612,-6.069,-6.0747,-6.0839,-6.0892,-6.0973,-6.1014,-6.1065,-6.1077,-6.1109,-6.1212,-6.1268,-6.1349,-6.1379,-6.1389,-6.1501,-6.1489,-6.1473,-6.1435,-6.152,-6.1561,-6.1577,-6.1373,-6.1372,-6.1371,-6.137,0,0,-6.0715,-6.0825,-6.0845,-6.0888,-6.0971,-6.1032,-6.1115,-6.1197,-6.1241,-6.1304,-6.1374,-6.1479,-6.1467,-6.1514,-6.153,-6.1585,-6.1678,-6.1563,-6.1565,-6.1584,-6.1807,-6.1818,-6.1836,-6.1677,-6.168,-6.1683,-6.1802,0,-6.0821,-6.097,-6.1,-6.1128,-6.1202,-6.1212,-6.1284,-6.1342,-6.1376,-6.1443,-6.1479,-6.1555,-6.1532,-6.1561,-6.1615,-6.1655,-6.1723,-6.1647,-6.1743,-6.1746,-6.1727,-6.1857,-6.1869,-6.1978,-6.1817,-6.182,-6.1822,0,-6.0964,-6.1035,-6.1171,-6.1248,-6.128,-6.1344,-6.1424,-6.1488,-6.1555,-6.1576,-6.163,-6.1642,-6.1728,-6.1687,-6.1807,-6.1754,-6.1796,-6.1822,-6.1827,-6.1837,-6.1789,-6.1872,-6.2014,-6.203,-6.1847,-6.1845,-6.1843,0,-6.1028,-6.1157,-6.1256,-6.1292,-6.1383,-6.1429,-6.1469,-6.1534,-6.1582,-6.1652,-6.1684,-6.1761,-6.1804,-6.1863,-6.1896,-6.1862,-6.2014,-6.1975,-6.2034,-6.2034,-6.2066,-6.2063,-6.2217,-6.2091,-6.2091,-6.209,-6.209,0,-6.1144,-6.1227,-6.1287,-6.1348,-6.1443,-6.1476,-6.1569,-6.1608,-6.1666,-6.1735,-6.1747,-6.1811,-6.185,-6.192,-6.1945,-6.2042,-6.206,-6.208,-6.2086,-6.208,-6.2077,-6.2107,-6.2101,-6.2095,-6.2094,-6.2093,-6.2092,0,-6.1231,-6.1274,-6.1384,-6.1462,-6.1484,-6.1551,-6.1618,-6.1678,-6.1712,-6.18,-6.1822,-6.1876,-6.196,-6.1999,-6.21,-6.2118,-6.2228,-6.2228,-6.2206,-6.2209,-6.2267,-6.2261,-6.2445,-6.2472,-6.2327,-6.2328,-6.233,0,-6.1302,-6.1367,-6.1454,-6.1503,-6.1545,-6.1621,-6.1672,-6.1709,-6.1761,-6.1845,-6.1895,-6.1979,-6.2049,-6.2181,-6.2229,-6.2308,-6.2311,-6.237,-6.2322,-6.2315,-6.2314,-6.231,-6.2317,-6.2378,-6.238,-6.2381,-6.2382,0,-6.1424,-6.1444,-6.1517,-6.16,-6.1661,-6.1727,-6.1792,-6.1831,-6.1877,-6.1936,-6.2022,-6.2077,-6.2183,-6.2267,-6.235,-6.239,-6.2394,-6.2397,-6.2415,-6.2409,-6.2395,-6.2405,-6.2231,-6.2392,-6.2391,-6.239,-6.239,-6.2389,-6.1507,-6.1567,-6.1638,-6.1721,-6.1774,-6.1836,-6.1897,-6.1941,-6.2015,-6.2106,-6.2122,-6.2215,-6.2283,-6.2395,-6.2439,-6.2512,-6.2498,-6.2523,-6.253,-6.2536,-6.2541,-6.2383,-6.2526,-6.2526,-6.2526,-6.2526,-6.2526,0,-6.1631,-6.1679,-6.1755,-6.1847,-6.1912,-6.1913,-6.1986,-6.204,-6.2123,-6.2187,-6.2256,-6.2357,-6.2439,-6.2495,-6.2579,-6.2627,-6.2631,-6.2647,-6.2644,-6.2654,-6.2547,-6.2524,-6.2643,-6.2643,-6.2643,-6.2643,-6.2643,-6.2643,-6.1704,-6.1806,-6.1834,-6.1963,-6.2009,-6.2102,-6.2144,-6.2201,-6.2253,-6.2366,-6.2435,-6.2472,-6.2534,-6.2622,-6.2698,-6.2713,-6.2743,-6.2761,-6.2775,-6.2674,-6.2661,-6.265,-6.2628,-6.2767,-6.2767,-6.2876,-6.2877,-6.2877]}]]